Wind_Speed
18 21 21 21 20 20 19 19 19 18 17 18 18 17 16 16 16 16 15 14 14 13 12 12 11 11 11 11 10 10 9 7 7 7 7 8 9 9 8 6 6 5 4 4 3 3 4 5 5 4 4 4 3 3 3 3 2 1 2 2 2 2 2 1 2 2 2 2 1 1 1 1 2 2 3 4 4 4 3 1 1 2 3 2 3
17 19 20 21 21 20 20 19 20 19 19 19 19 18 17 16 17 17 16 15 14 13 13 12 12 11 11 10 10 10 10 8 8 7 7 9 9 8 8 7 7 6 5 4 4 4 4 5 5 4 4 5 4 3 4 3 1 1 1 2 2 2 1 1 2 1 1 2 2 1 2 2 1 2 3 5 5 5 5 4 2 3 3 2 3
16 17 20 22 22 22 20 19 20 20 20 20 19 19 18 17 17 16 16 16 14 13 13 12 12 11 10 10 9 9 10 9 7 7 7 8 9 8 7 8 7 6 6 5 4 4 3 4 5 5 4 4 4 4 4 3 2 1 1 1 2 2 2 2 2 1 2 2 2 1 1 2 1 1 3 4 4 4 6 5 3 3 3 1 1
16 17 19 21 22 23 21 20 21 21 20 21 20 20 19 18 18 17 17 16 15 14 13 12 12 11 10 9 8 7 8 9 7 7 7 7 9 9 7 8 7 6 6 5 4 4 4 3 3 4 4 4 4 4 4 3 3 2 1 1 1 2 2 3 2 1 3 2 1 0 0 1 2 2 4 4 3 4 5 5 2 3 4 2 2
15 17 18 20 22 23 22 21 21 21 21 22 22 21 20 19 19 19 18 17 16 16 15 13 12 12 10 10 9 7 7 9 8 8 8 7 8 9 8 8 7 6 6 5 5 5 4 3 2 3 4 4 4 4 4 3 4 3 2 2 1 1 2 2 1 1 2 2 1 1 1 1 2 1 2 1 2 4 5 5 2 3 4 2 2
13 16 17 18 22 23 23 22 22 22 21 22 23 22 21 21 21 20 19 18 17 17 16 14 14 14 12 11 11 9 9 10 9 9 9 8 8 8 9 8 7 6 6 6 5 5 5 3 3 3 3 4 3 2 3 4 4 4 3 3 1 1 2 1 1 1 2 1 1 2 1 2 2 2 1 1 2 1 2 5 3 2 4 3 2
10 12 16 18 20 22 22 22 22 21 21 21 22 22 22 21 22 21 19 18 18 18 18 16 15 15 14 13 12 11 10 10 10 9 9 8 8 8 8 8 8 7 7 7 6 6 5 5 4 3 3 4 3 3 4 4 5 4 4 2 1 2 1 1 1 1 1 1 1 2 1 2 2 1 0 1 1 2 3 2 5 3 3 4 1
9 8 11 16 19 21 21 22 22 21 21 21 21 22 22 22 23 22 20 19 18 19 20 18 16 15 15 14 12 12 11 10 10 10 8 7 8 7 7 8 8 7 7 8 7 6 6 5 5 4 4 4 4 4 4 3 4 4 3 2 1 2 1 2 1 1 1 1 1 1 2 2 1 1 1 1 1 1 1 0 3 2 3 3 1
10 8 8 12 17 21 21 20 21 21 21 21 21 22 22 22 23 22 21 19 19 20 20 19 17 15 15 14 12 11 11 10 11 11 9 8 8 8 7 7 8 8 7 8 8 7 7 6 5 5 4 4 5 5 4 3 3 3 3 3 2 2 2 2 2 2 3 0 1 1 2 1 1 1 2 2 1 1 1 1 3 1 1 3 1
8 9 9 11 15 20 22 21 21 22 21 20 20 21 22 23 23 23 21 20 20 21 21 20 18 16 15 15 13 12 11 10 10 11 10 8 8 8 8 7 8 9 8 8 8 8 8 7 6 6 5 5 5 4 4 4 3 4 4 3 3 3 2 3 3 3 4 3 0 0 1 1 1 1 3 1 2 1 3 1 4 2 2 3 1
7 8 11 14 16 20 21 22 23 21 18 18 19 20 22 22 23 23 22 20 21 21 21 21 19 17 16 16 15 14 12 11 10 12 12 10 10 10 9 8 8 8 9 8 9 9 8 7 7 6 6 6 4 3 4 5 5 5 5 4 4 3 3 3 4 4 3 3 2 1 2 2 1 1 2 2 1 1 3 2 1 2 2 2 2
11 11 11 13 15 18 19 20 21 19 17 18 19 18 20 21 22 23 22 21 21 22 21 21 20 18 17 16 16 15 13 12 11 12 13 12 11 11 10 9 9 9 9 9 9 9 9 8 7 6 5 5 5 4 4 4 4 5 5 4 4 4 4 3 4 4 3 3 3 3 3 2 2 2 2 1 0 1 3 4 2 2 2 1 3
13 13 12 11 12 16 18 20 21 21 21 20 20 19 19 20 22 23 23 22 21 21 22 21 20 19 18 17 16 16 14 13 12 12 13 13 12 12 11 10 10 10 10 9 10 10 9 8 8 7 6 5 4 4 3 3 3 4 5 5 5 5 4 4 5 5 3 4 3 2 3 3 2 2 2 2 2 2 2 4 4 3 3 1 3
9 10 11 11 12 15 16 16 16 19 22 22 22 21 19 19 21 22 23 23 22 21 21 21 20 19 18 18 16 16 16 14 13 13 13 13 13 13 12 11 11 11 10 10 9 9 9 9 9 8 7 6 5 5 4 4 5 4 4 5 5 5 5 4 5 5 4 4 4 2 2 3 2 2 2 2 2 2 1 2 3 5 6 0 4
8 9 10 10 13 15 14 11 11 15 19 21 22 20 17 19 21 22 22 22 22 22 22 21 21 19 19 18 17 16 16 15 14 13 13 13 13 13 13 12 11 11 11 10 9 10 9 9 9 9 8 8 7 7 6 6 7 6 5 5 6 5 5 4 5 5 4 4 4 3 3 3 3 3 3 2 2 1 2 2 2 3 5 4 2
8 8 8 9 12 13 12 12 12 13 16 18 20 19 19 20 22 22 22 22 22 22 22 22 21 20 19 19 18 17 16 16 15 14 13 13 13 13 13 12 11 10 11 11 11 11 10 10 10 10 10 9 9 9 8 7 8 8 7 7 7 6 5 5 5 4 4 4 4 3 3 3 3 3 3 2 1 1 2 2 2 2 2 3 3
6 7 9 9 9 8 9 11 12 12 14 17 18 17 18 21 23 22 21 21 21 21 21 21 21 20 20 20 19 18 18 17 16 15 15 14 14 13 14 13 12 11 10 12 12 11 11 10 10 10 11 11 10 10 9 9 8 9 9 8 7 6 5 5 6 5 4 4 4 4 3 3 3 3 4 3 1 1 2 2 1 1 1 2 3
5 7 8 8 10 13 13 14 12 12 14 16 17 17 15 16 19 21 21 21 20 20 21 21 21 21 20 20 20 19 18 17 16 16 15 15 14 14 14 14 14 12 11 11 12 12 12 11 11 11 11 11 11 11 11 10 10 10 9 8 8 7 6 5 6 5 5 4 4 4 3 3 3 3 4 4 2 2 3 3 2 1 1 2 2
3 6 6 3 8 14 16 15 13 12 11 11 11 14 14 13 15 16 19 21 20 19 21 22 21 20 19 20 20 19 18 17 16 17 16 16 16 15 15 14 14 14 13 12 12 12 13 12 12 11 11 12 12 11 11 11 11 10 10 8 8 8 7 6 6 6 6 5 5 5 4 4 3 3 4 4 3 3 4 4 3 3 3 3 3
5 6 7 7 2 6 12 14 12 11 12 11 9 10 13 15 17 17 19 22 22 22 23 23 21 20 19 19 20 20 19 17 17 17 17 17 17 16 16 16 15 15 14 14 14 13 13 13 13 13 12 13 12 12 12 11 11 11 10 9 8 9 9 8 7 7 6 5 5 5 5 5 4 4 4 4 5 5 5 5 4 4 4 4 4
9 7 7 9 10 7 6 10 9 7 11 16 15 11 12 15 17 21 22 22 23 23 22 21 20 18 18 19 20 20 20 19 18 18 18 18 17 17 17 16 16 16 15 15 15 15 14 14 14 13 13 13 13 13 12 12 12 12 11 10 9 8 9 9 8 8 7 7 6 6 6 6 6 6 5 5 6 6 6 6 6 6 6 6 6
9 8 7 8 10 12 11 7 5 4 6 14 18 15 15 19 21 21 22 20 20 20 19 16 15 15 16 17 18 19 20 20 19 19 19 18 18 19 18 17 17 17 17 16 16 16 16 15 14 14 14 14 13 13 13 12 12 12 12 11 10 10 10 9 9 9 9 8 8 8 8 8 8 7 7 7 8 8 8 8 7 7 7 7 6
9 8 7 8 9 12 15 15 14 13 12 2 11 15 14 20 22 16 15 17 17 17 16 15 15 14 14 15 16 17 18 20 20 20 20 20 19 19 19 19 19 18 18 18 17 17 17 17 16 15 15 14 14 14 14 13 13 13 13 12 11 11 11 11 10 10 10 10 9 10 10 9 9 9 9 9 9 9 8 8 7 7 6 6 6
10 9 9 10 13 15 16 17 17 18 21 18 2 9 6 8 13 11 11 13 13 14 15 15 15 14 15 16 16 17 18 19 20 20 20 20 20 20 20 20 20 19 19 19 18 17 17 18 18 17 16 16 15 15 14 14 14 13 13 13 12 12 11 11 11 11 11 11 11 11 11 10 10 9 10 9 9 9 9 8 8 8 8 8 8
12 12 12 13 15 16 16 16 17 16 17 18 10 3 6 6 6 9 12 14 13 12 12 13 15 15 15 17 17 18 18 19 20 21 21 21 20 20 20 20 20 20 19 19 19 19 18 18 19 18 18 18 17 16 16 16 15 14 14 14 14 13 13 12 12 12 11 11 12 12 11 11 11 11 11 10 10 10 10 9 9 9 8 9 9
12 13 13 13 14 16 17 17 17 16 15 14 13 12 11 10 7 2 7 12 12 11 10 12 15 15 15 17 17 19 19 19 21 21 21 21 21 21 21 21 20 20 20 20 20 20 20 20 20 19 19 19 18 18 18 17 17 16 15 15 15 14 14 14 14 13 13 13 13 13 12 12 12 12 12 11 11 11 10 10 10 10 9 9 9
12 12 12 13 13 15 18 18 17 17 16 15 14 16 17 15 13 8 3 3 5 8 9 12 14 13 15 17 17 17 17 18 20 22 21 21 21 21 21 21 21 21 21 21 21 21 21 21 21 21 20 20 20 19 19 19 18 17 17 16 16 16 15 15 15 14 14 14 14 14 14 14 13 13 13 12 12 11 11 11 11 10 10 10 11
12 12 13 13 13 14 16 17 18 17 17 17 16 16 17 17 16 13 10 9 7 4 5 9 13 12 13 15 16 18 18 18 21 23 22 20 20 21 21 21 21 21 21 22 22 22 21 21 21 22 21 21 20 20 20 20 20 19 18 18 17 17 17 17 16 16 15 15 15 15 15 15 15 15 15 14 13 12 12 12 11 11 11 11 11
13 13 13 13 13 14 15 17 17 18 18 17 17 17 17 16 16 14 13 13 11 9 9 8 10 14 14 13 14 17 18 19 21 21 20 19 20 20 21 21 22 22 22 22 22 22 22 22 22 22 22 21 21 21 21 21 21 20 20 19 19 19 19 18 17 17 17 16 16 16 16 16 15 15 16 16 15 14 13 12 11 10 11 12 12
13 12 12 12 12 14 15 16 16 17 17 17 16 17 16 15 15 13 13 13 12 8 8 10 9 10 13 13 13 14 14 15 17 18 18 19 20 20 21 21 22 22 22 21 21 22 22 22 22 22 22 22 22 22 23 24 23 21 20 20 20 20 20 20 19 18 18 18 18 18 17 17 17 16 17 18 20 20 19 17 15 13 12 12 12
12 12 11 11 12 14 14 14 15 16 16 16 15 15 15 15 15 13 12 12 11 9 6 8 10 11 11 12 13 14 14 15 15 15 16 17 19 20 21 21 21 21 21 21 21 21 22 22 22 22 23 23 23 23 24 26 26 25 22 20 20 20 20 20 20 20 20 19 19 20 19 19 19 19 20 22 24 25 25 25 23 21 20 18 16
11 11 11 11 12 13 15 15 15 15 15 15 14 14 14 14 14 14 14 13 11 10 9 6 7 10 11 11 11 11 12 14 14 14 14 14 16 17 18 20 22 22 22 22 22 22 22 22 22 23 23 23 23 24 25 27 28 29 28 24 21 20 21 21 21 21 21 21 21 21 21 21 20 20 21 22 24 25 25 25 24 23 23 24 24
10 10 11 11 12 13 15 15 15 15 15 14 14 14 13 13 13 12 12 13 12 11 11 10 8 9 11 11 10 10 11 12 13 15 14 13 15 17 19 20 21 21 22 22 22 22 22 23 23 23 23 23 23 24 25 27 28 30 31 30 27 23 21 22 22 21 22 22 22 22 22 22 21 21 21 21 21 22 22 23 24 23 22 23 25
9 10 10 11 12 12 14 15 14 14 14 13 14 14 12 12 12 10 11 12 13 11 11 12 12 12 12 12 12 11 10 11 13 15 16 16 17 18 20 23 23 20 20 22 23 23 22 23 23 23 23 23 24 24 25 28 30 31 32 33 32 29 25 23 23 23 22 22 22 22 22 22 22 22 22 21 20 21 21 21 22 23 24 25 25
8 9 9 10 11 12 14 13 13 13 12 13 14 14 13 13 12 11 11 11 11 10 10 12 13 13 12 13 13 12 12 12 10 10 13 16 18 18 18 20 23 24 21 19 20 22 22 22 23 23 23 24 25 25 25 26 28 31 32 33 34 33 29 25 24 25 25 24 24 23 23 23 23 23 23 23 22 21 20 20 20 20 21 22 23
8 8 9 9 9 11 13 13 12 12 11 12 14 14 14 14 13 12 12 11 10 9 9 11 13 14 15 15 14 13 13 14 13 10 10 12 15 16 17 17 19 24 26 22 17 17 19 21 21 23 23 24 26 26 27 28 28 29 30 31 34 34 30 26 24 25 26 27 26 26 25 24 24 24 24 25 25 23 21 20 19 19 19 19 20
7 8 8 8 9 11 12 12 11 11 11 12 13 14 14 13 13 14 13 12 11 10 9 10 13 14 15 16 16 15 12 12 13 12 11 11 12 14 17 18 18 22 24 23 20 19 20 21 22 24 24 24 25 26 27 29 30 29 29 30 33 32 28 26 25 25 25 26 27 29 28 26 26 26 26 26 26 26 24 22 21 20 19 20 20
6 7 8 8 10 12 12 11 11 11 11 13 14 13 13 12 13 14 14 13 12 12 11 11 13 14 14 14 14 14 12 12 12 12 12 12 12 11 13 16 20 24 25 24 25 26 25 23 23 24 25 25 25 25 27 29 30 31 31 31 32 30 25 24 25 25 25 25 27 30 31 30 28 27 26 26 27 27 27 25 23 22 21 21 21
6 7 8 9 10 11 11 10 11 11 12 13 13 12 12 12 12 13 13 13 12 12 13 13 13 13 13 13 14 14 13 12 13 14 13 12 13 12 12 13 18 22 24 23 24 26 28 28 25 24 25 26 26 25 26 28 30 31 32 33 33 28 24 24 24 23 23 24 26 29 32 34 34 32 29 27 26 27 28 26 23 22 22 23 21
8 9 10 10 10 10 10 11 11 12 13 13 13 12 12 12 12 13 13 12 12 12 12 13 13 13 14 14 14 14 13 13 14 16 15 15 17 18 17 16 17 18 19 20 21 23 25 27 27 25 25 26 27 27 27 28 30 31 32 34 33 28 24 24 23 21 21 22 23 25 28 32 35 36 35 33 30 29 28 25 23 22 23 22 19
11 13 14 13 11 10 11 12 12 12 13 13 12 12 12 12 13 13 13 13 14 13 13 13 13 14 14 14 13 12 11 10 11 13 15 16 18 20 19 17 17 17 18 19 20 20 22 23 25 25 25 26 27 28 27 27 29 30 30 32 33 30 26 23 22 21 21 22 22 23 23 26 29 31 33 33 34 33 32 29 27 27 26 23 19
9 11 12 13 14 14 14 14 13 13 13 13 13 13 13 13 13 14 14 15 15 14 14 14 13 13 13 13 13 12 10 8 7 9 12 15 17 18 18 18 17 17 19 20 20 20 23 24 24 25 25 25 26 27 27 26 28 30 30 31 32 32 28 23 21 21 22 22 22 23 22 23 24 26 26 27 29 31 33 34 35 35 33 30 26
8 10 10 11 13 15 16 16 15 15 14 14 14 15 14 14 14 15 15 16 15 15 15 15 15 14 13 13 13 12 12 10 9 9 11 14 16 15 17 19 19 17 18 20 20 20 22 25 26 26 24 23 24 25 25 24 25 27 29 30 31 32 31 27 23 21 21 21 20 21 22 22 23 24 24 24 24 26 29 32 33 35 35 34 33
9 10 11 12 13 14 16 17 17 16 16 15 15 15 15 16 16 16 15 15 15 15 16 16 16 15 14 14 14 13 13 13 12 12 12 14 15 14 15 18 18 17 18 19 19 19 20 23 27 27 25 24 23 23 23 22 23 25 27 29 29 30 31 31 28 24 22 20 19 20 21 22 22 23 23 23 23 24 26 29 30 30 30 32 35
8 9 10 11 13 14 16 18 18 18 17 17 16 16 17 18 17 16 15 15 15 16 16 16 16 16 16 16 15 15 15 14 14 14 13 14 14 14 15 15 16 17 18 18 19 19 19 22 24 24 23 20 17 16 16 16 17 19 23 27 30 31 31 33 32 29 25 22 21 21 22 21 21 20 20 21 22 24 26 27 27 27 27 29 33
8 9 9 11 13 14 15 17 18 18 18 17 16 17 18 18 18 17 17 17 17 17 17 17 17 17 17 17 17 16 16 15 15 15 14 15 16 15 15 16 16 16 17 17 18 19 20 20 18 17 19 20 18 17 18 19 19 18 18 21 26 29 31 33 34 34 31 29 27 25 25 24 23 22 21 22 23 25 27 27 27 27 27 29 31
11 11 11 11 12 13 14 16 17 17 17 17 17 17 18 18 18 19 19 19 18 18 18 18 18 18 17 17 17 16 16 15 15 15 15 16 16 16 16 16 16 16 16 17 18 19 19 17 14 14 19 22 22 23 24 22 20 19 18 20 22 24 27 31 36 37 36 35 32 30 29 30 30 29 28 28 28 27 26 26 27 28 30 31 31
14 14 14 13 12 12 13 15 16 17 17 18 19 19 19 20 20 19 20 20 20 20 20 20 19 19 18 18 18 17 17 16 16 17 17 16 16 15 15 15 15 15 15 15 15 15 14 14 13 15 18 21 22 24 24 21 18 16 15 15 16 16 18 24 32 36 36 33 30 30 31 32 32 32 31 30 30 28 26 25 25 26 28 30 31
16 16 16 15 15 15 15 16 16 16 17 18 19 20 21 21 21 20 19 20 20 20 21 21 20 20 19 18 18 18 18 18 17 17 17 16 16 16 17 18 18 17 17 18 18 19 18 16 15 15 15 16 16 16 17 17 17 14 10 9 11 12 14 19 25 29 31 29 24 23 25 26 25 26 27 27 26 26 25 25 24 24 23 24 26
16 16 17 17 18 18 18 17 17 16 17 18 19 20 21 21 21 20 20 20 21 21 21 21 20 20 19 18 18 18 18 18 17 17 17 17 19 19 20 22 23 23 23 24 26 27 26 24 25 26 24 21 20 19 18 17 16 16 16 19 23 21 18 18 19 20 24 26 22 18 19 21 21 22 23 23 23 22 22 22 23 24 23 23 23
16 17 18 19 20 20 20 20 19 18 18 18 18 19 19 20 20 20 20 21 21 21 21 21 20 20 19 19 19 19 19 18 18 18 18 19 21 21 22 23 25 26 26 25 26 28 26 24 26 30 32 30 29 30 29 27 27 28 28 31 32 26 21 21 21 20 24 27 23 19 19 20 21 22 22 22 22 22 22 22 22 23 25 25 25
Wind_Direction
169 172 173 168 170 171 166 168 171 168 167 164 165 168 165 163 162 160 163 163 161 163 165 169 170 172 176 173 172 173 169 165 163 160 152 144 142 146 145 138 140 143 148 150 140 129 124 129 134 134 134 128 116 113 114 121 134 131 129 159 180 172 180 160 101 68 63 74 41 59 76 113 137 142 182 176 163 149 134 94 112 155 158 164 173
168 170 172 172 172 172 168 170 173 172 170 169 170 170 168 169 167 164 165 167 169 167 169 175 175 176 177 178 178 172 171 174 173 168 157 149 149 151 146 142 145 144 146 148 147 151 142 138 140 138 134 131 135 130 120 135 158 170 189 194 176 150 145 118 101 75 74 80 44 51 83 79 117 180 198 182 162 153 151 143 144 171 167 159 159
170 172 174 174 174 172 171 173 176 175 174 174 175 172 171 173 170 169 169 170 173 171 172 176 178 179 178 182 182 173 174 178 176 172 164 157 158 162 155 148 150 148 149 151 152 154 144 141 144 142 138 139 144 143 145 156 165 204 221 199 164 141 130 116 107 359 28 68 67 61 103 95 94 200 196 175 159 157 165 159 163 169 143 136 185
171 175 176 176 175 174 173 175 177 177 177 178 178 175 175 176 173 173 175 173 175 175 175 176 175 179 180 183 186 173 173 177 175 175 173 167 165 167 167 160 159 156 153 156 156 147 144 148 145 144 146 148 146 148 164 169 173 203 213 177 192 148 137 135 119 67 40 39 42 81 184 104 91 152 153 154 143 148 173 148 139 195 143 137 232
177 178 178 178 177 177 175 177 179 179 180 180 181 180 178 177 175 175 177 176 177 175 175 175 171 175 177 179 183 173 171 178 180 181 181 179 175 174 173 170 171 163 156 161 159 151 157 163 148 148 152 160 159 155 168 170 173 195 188 195 246 63 101 131 129 84 68 37 5 56 18 64 36 3 113 194 197 148 154 125 114 220 135 108 251
187 181 179 182 179 178 176 178 182 181 182 183 183 183 180 178 176 175 177 178 179 177 176 174 171 176 176 177 182 179 179 184 185 187 185 186 186 178 175 176 177 172 165 166 159 157 166 167 171 175 160 167 179 162 169 176 174 179 179 195 229 77 62 81 150 153 83 78 158 121 38 35 34 339 22 285 263 129 160 139 140 224 138 125 210
197 187 183 185 182 181 179 180 185 183 182 184 184 184 181 178 177 176 178 178 179 177 176 176 175 179 180 181 185 185 188 189 188 194 189 187 190 178 174 177 178 179 173 167 161 161 167 172 186 196 176 173 181 180 188 184 163 157 170 182 153 119 82 336 171 128 98 214 194 134 46 32 61 9 30 159 153 4 302 173 133 155 156 135 142
190 195 192 189 186 184 181 182 187 185 181 182 183 183 180 178 177 177 178 179 179 178 178 179 179 181 184 186 188 189 193 190 187 195 192 188 190 180 176 175 177 183 172 165 168 168 172 180 188 203 205 183 176 188 200 175 136 135 163 170 156 156 183 271 302 340 235 170 119 36 47 48 92 130 80 303 237 115 265 245 99 127 141 104 51
189 198 202 197 192 188 183 184 191 190 184 184 182 180 178 177 177 178 179 179 180 179 179 182 182 182 185 188 190 191 194 189 185 192 190 189 190 180 178 174 175 181 173 168 174 176 177 179 186 204 210 191 184 187 182 162 138 144 173 178 188 201 197 242 271 282 279 230 105 356 22 10 301 189 172 192 195 122 181 144 113 159 141 92 352
197 203 200 196 197 193 184 186 197 196 187 186 185 180 176 176 176 179 180 179 181 180 180 184 184 184 187 190 192 190 191 188 184 188 187 186 189 183 182 180 177 180 180 176 175 180 182 179 188 200 201 198 192 172 159 170 165 163 183 185 185 203 199 226 238 245 283 299 297 69 12 326 344 301 255 167 117 203 278 210 145 179 171 128 354
205 216 206 196 199 197 185 186 199 198 187 187 191 182 175 177 176 178 180 180 181 181 182 185 186 187 189 191 193 191 190 187 183 187 187 186 190 189 189 187 184 182 181 183 183 183 184 182 191 198 198 204 194 171 175 183 180 174 179 181 186 213 221 231 249 247 248 270 277 230 228 229 164 244 291 20 54 260 292 297 94 34 343 117 101
199 206 198 193 196 193 184 187 196 197 187 187 194 186 178 179 177 178 181 181 182 182 183 186 187 190 191 191 194 193 192 191 186 187 188 189 192 193 194 191 192 188 179 186 190 184 182 183 192 197 196 202 193 187 194 190 186 174 168 177 191 210 230 236 249 255 233 227 247 229 231 232 191 229 234 144 47 360 321 309 16 28 290 118 89
190 189 179 183 193 190 186 188 191 194 190 185 190 190 182 182 181 181 183 182 183 184 185 187 189 192 192 192 195 195 196 196 192 192 191 193 195 196 197 193 195 196 186 190 193 183 182 184 189 194 193 195 193 192 197 198 207 186 170 186 197 199 218 229 236 252 248 238 243 226 237 246 219 246 249 190 172 172 260 307 352 325 271 131 74
183 184 179 182 190 191 192 191 187 193 192 186 189 189 181 182 184 185 186 183 184 185 186 188 189 192 193 193 195 195 198 199 197 199 196 196 198 198 200 197 197 200 195 193 191 184 186 186 188 193 193 194 194 194 197 202 217 211 186 195 206 203 209 223 236 245 242 245 250 238 242 253 246 245 244 248 234 188 232 343 360 321 307 346 118
174 182 185 183 189 194 196 193 189 197 197 191 188 181 177 184 187 187 187 184 184 186 187 189 190 192 192 193 196 196 198 200 200 203 201 200 200 200 204 204 200 201 199 195 190 188 189 186 189 195 197 198 198 200 203 204 214 221 209 204 209 205 206 224 243 248 243 241 245 254 258 245 250 255 238 258 306 14 18 19 20 331 320 328 95
174 180 179 182 193 196 194 192 193 200 203 198 190 182 181 185 185 187 190 187 186 187 188 190 191 192 192 193 195 196 197 200 200 201 203 204 202 202 206 208 207 202 197 196 193 192 193 191 193 198 199 201 202 204 208 210 214 219 217 213 215 212 205 220 240 250 250 249 245 251 267 252 241 261 264 261 306 5 8 2 347 347 341 335 344
169 181 180 179 189 204 211 207 197 194 206 206 196 189 187 182 180 185 190 189 187 188 191 192 191 191 192 193 194 196 198 200 201 201 202 203 203 205 206 207 209 206 198 196 195 195 197 197 200 201 201 204 206 206 210 215 218 222 219 213 217 222 214 217 235 248 244 246 246 238 245 256 247 254 264 253 218 274 302 286 297 348 8 331 321
154 161 164 168 185 197 200 202 199 195 209 210 196 194 195 184 180 184 188 188 188 190 195 196 193 191 192 193 195 196 198 201 202 201 202 202 201 204 207 206 207 208 204 200 198 198 200 201 204 206 205 205 208 208 210 215 220 227 228 219 216 223 224 220 228 245 247 241 247 244 241 254 251 240 251 252 227 220 255 266 271 273 249 286 304
127 121 105 116 193 191 178 176 185 190 208 223 208 201 203 193 186 186 188 190 191 194 199 200 196 192 192 194 195 197 198 200 202 201 201 202 202 202 206 208 207 207 207 206 205 203 202 204 206 209 210 208 209 211 211 214 218 226 231 226 217 217 225 231 230 236 241 238 241 245 246 252 258 255 255 262 260 247 253 257 251 252 249 259 286
48 84 72 43 45 176 168 169 174 173 187 209 215 209 207 204 198 194 195 196 196 199 202 201 200 196 193 192 194 197 198 198 199 200 200 202 203 203 205 207 208 208 207 206 210 209 205 206 208 210 211 210 210 212 211 212 216 222 228 230 221 213 218 229 233 234 235 234 234 238 243 247 252 256 258 262 261 254 256 259 250 247 249 244 252
34 50 55 41 41 64 135 173 181 169 182 197 200 201 217 224 213 199 196 196 195 197 201 201 201 201 197 195 195 195 197 198 198 199 201 201 202 203 205 206 207 208 209 207 208 210 210 211 212 212 213 212 210 212 212 211 214 219 224 228 226 219 220 225 229 234 238 236 233 234 241 245 249 254 255 260 260 250 243 246 244 238 241 240 235
38 43 46 42 45 57 71 96 129 130 179 203 198 188 202 223 221 203 194 194 192 195 202 203 201 204 205 204 201 197 198 201 200 199 202 201 201 203 204 205 206 207 209 210 208 209 210 212 214 216 217 215 210 211 215 214 215 218 221 225 224 220 223 227 229 232 235 237 236 237 241 243 243 246 248 253 257 255 249 243 238 234 239 243 235
49 49 51 53 50 52 56 55 57 61 51 40 204 194 199 221 224 207 191 194 190 190 199 201 201 206 209 212 213 208 204 205 204 202 203 203 203 203 203 205 207 207 206 209 211 210 209 210 214 216 218 218 213 211 216 218 218 219 220 224 225 221 222 226 229 231 231 233 234 235 239 240 239 239 240 246 252 256 262 263 261 258 261 263 255
56 51 46 50 48 43 45 46 48 52 44 35 16 205 193 219 225 210 194 198 194 190 193 195 200 204 206 213 219 217 212 211 211 208 205 206 204 203 203 205 208 209 207 207 209 212 210 208 211 215 215 217 216 213 216 218 219 221 222 224 226 227 227 226 229 232 231 232 234 236 238 239 241 243 241 244 249 253 256 260 262 262 263 265 265
55 52 43 41 43 41 41 42 45 52 50 41 36 89 103 118 185 203 200 198 197 198 195 195 203 207 208 213 218 219 217 215 217 215 208 207 207 204 204 205 208 211 210 207 207 210 212 210 211 213 213 215 216 215 216 218 219 221 222 224 225 227 229 229 230 232 232 233 234 237 239 238 239 243 243 243 245 249 251 251 252 254 253 255 257
51 51 48 42 41 40 40 41 42 44 47 44 38 38 53 78 92 129 209 202 197 199 198 202 209 211 215 219 218 219 220 217 221 222 213 209 210 208 205 205 207 211 212 210 207 207 210 211 211 213 214 214 215 216 217 219 221 221 222 224 226 225 227 228 229 230 230 231 234 236 238 239 240 241 243 245 245 247 250 250 252 255 255 257 257
53 48 48 46 42 39 39 40 41 41 40 38 35 31 33 46 59 50 351 267 210 200 204 212 215 214 219 223 221 220 220 217 222 226 221 215 213 211 209 207 206 209 212 213 210 207 209 211 212 212 214 215 216 217 219 219 221 222 222 224 225 225 225 225 226 228 229 230 233 235 235 236 237 240 243 244 245 246 248 249 250 253 254 255 257
61 52 47 44 41 38 36 36 38 39 39 35 32 30 29 32 37 36 23 5 347 319 273 235 223 223 229 227 224 224 223 221 223 225 223 220 218 216 215 211 207 208 212 215 214 210 209 210 212 212 214 216 216 218 219 219 220 221 221 223 224 225 226 226 226 228 230 232 234 235 237 236 234 235 237 241 242 242 245 249 249 248 249 251 254
61 56 52 46 42 37 32 31 32 33 35 36 30 27 28 29 27 25 22 11 356 338 321 288 240 228 232 235 233 230 226 223 223 223 221 221 223 221 219 217 213 211 212 215 217 215 211 211 212 212 214 216 217 219 219 218 218 219 220 222 223 224 226 228 229 230 231 233 236 238 240 241 238 235 232 235 238 237 239 244 247 248 248 249 251
57 55 54 52 48 41 34 31 30 29 31 32 29 25 24 26 23 18 15 8 358 342 316 305 290 256 239 239 246 249 248 240 229 223 221 222 223 223 223 222 220 216 214 215 218 219 217 214 214 214 215 216 218 221 220 218 217 217 219 222 223 224 226 227 230 233 234 235 237 240 243 245 245 242 238 239 242 242 244 247 247 245 244 247 250
54 50 48 49 49 42 36 33 30 30 29 28 27 24 21 22 19 15 12 5 357 349 319 290 293 292 272 255 253 257 260 258 248 236 230 228 228 225 224 224 225 224 220 217 219 223 223 221 219 218 218 219 222 223 221 219 218 217 218 221 225 226 226 227 229 231 234 237 239 241 244 246 246 244 243 246 249 251 254 255 254 248 242 241 243
53 46 39 39 40 36 31 28 27 28 27 25 22 20 18 16 12 10 9 5 359 352 344 318 291 296 300 291 281 271 260 256 255 252 248 247 246 242 236 228 224 223 223 221 221 223 226 228 227 225 224 223 226 227 225 222 221 221 220 221 224 227 228 229 230 231 233 237 239 242 245 246 246 243 241 244 249 254 257 257 257 254 247 242 240
50 45 39 33 31 30 25 21 21 21 21 21 20 16 14 10 7 7 8 6 3 357 351 346 333 325 327 322 313 301 285 271 262 256 251 248 251 258 259 253 239 227 222 223 224 224 226 229 231 233 232 231 230 229 227 225 225 226 226 225 226 229 231 232 232 233 235 237 239 242 244 246 248 246 243 241 243 248 255 258 259 257 253 249 244
45 42 41 31 27 27 22 16 15 13 12 14 14 10 9 6 3 6 9 6 4 360 356 352 347 342 337 333 337 338 317 290 272 265 261 250 243 248 256 264 268 255 234 225 225 225 225 228 231 235 235 236 235 233 230 228 226 228 230 231 230 230 232 236 237 237 238 239 239 240 242 243 245 246 245 242 239 239 245 252 257 258 257 257 254
40 36 33 28 24 22 17 11 8 7 6 8 7 3 3 2 360 3 7 3 359 360 0 358 352 347 342 337 340 346 339 327 313 296 283 270 261 257 253 261 277 283 272 252 237 230 226 225 228 233 235 236 237 236 235 233 230 229 231 232 233 232 232 236 239 240 241 242 241 241 241 242 243 243 242 241 239 237 237 240 245 250 253 253 254
31 30 25 21 18 15 10 3 358 1 4 5 2 357 356 356 356 360 1 354 350 355 2 1 353 348 347 345 342 342 344 345 342 330 306 287 277 274 267 261 270 281 283 281 277 262 247 237 232 231 233 236 237 236 236 236 235 234 232 231 232 232 233 235 239 240 240 241 242 241 242 242 243 243 243 241 239 237 237 239 241 242 245 246 246
22 18 14 15 14 6 359 353 350 354 1 1 355 351 350 350 352 355 353 348 347 352 1 2 353 344 343 344 341 341 344 345 338 327 316 306 291 276 269 260 255 261 262 261 261 256 249 247 243 235 231 235 237 236 235 235 235 234 232 230 230 230 231 234 238 239 239 239 240 241 241 241 242 243 243 242 240 238 237 239 243 244 247 249 249
14 4 1 8 6 353 346 345 343 347 355 351 344 343 342 342 347 349 347 345 346 351 355 354 348 340 338 341 341 339 343 346 338 326 320 313 300 284 274 263 256 255 254 250 248 243 238 241 246 242 234 233 235 235 234 233 234 233 231 231 230 228 229 233 236 238 238 238 240 242 241 240 241 242 243 242 242 240 237 237 241 245 248 250 250
359 358 0 0 352 338 333 336 336 342 347 340 335 336 334 334 339 339 339 341 344 347 347 343 338 332 329 335 340 340 342 345 339 334 329 316 298 287 281 271 262 259 259 260 259 253 245 243 248 252 248 241 237 237 235 232 232 232 231 231 230 226 227 232 234 237 237 237 240 243 243 243 242 242 242 241 241 241 238 236 239 244 247 249 250
346 354 356 347 335 330 330 332 334 339 336 328 328 329 325 326 329 328 330 334 337 340 338 333 331 328 326 330 334 335 339 341 336 332 328 317 305 296 289 283 278 274 270 266 261 255 250 246 246 250 252 248 244 241 238 235 233 232 231 231 229 225 226 231 234 236 238 239 240 242 244 245 246 246 245 242 241 241 239 238 238 242 245 248 251
341 347 345 335 329 332 331 328 330 330 325 323 324 322 319 319 318 317 320 324 327 331 331 328 326 323 321 323 323 323 329 332 324 317 312 307 304 303 302 297 287 280 274 267 259 255 252 247 244 244 245 247 247 245 242 238 236 234 233 232 229 227 228 231 235 237 239 242 243 244 245 247 249 251 250 246 244 243 243 241 240 242 245 247 249
338 337 335 330 329 330 327 325 327 325 323 323 321 317 315 313 310 309 313 316 319 321 322 323 321 316 314 315 312 311 312 309 297 291 290 289 288 291 296 295 285 277 272 267 263 261 257 253 249 245 243 244 247 247 246 243 238 235 234 233 232 231 230 230 234 237 239 242 245 247 249 251 251 253 253 249 246 245 244 245 245 247 248 248 247
329 326 328 329 326 324 322 322 323 322 323 323 318 314 312 308 305 306 307 309 310 312 315 315 313 311 309 306 304 304 302 296 286 277 275 278 280 282 283 280 275 272 271 268 262 260 260 260 257 252 248 248 250 250 250 251 248 240 235 235 237 238 235 231 233 239 241 244 247 249 251 253 253 254 254 252 249 245 243 246 249 251 251 250 249
322 321 328 328 322 318 316 315 316 318 319 319 315 311 307 303 304 306 306 304 303 304 308 308 306 307 306 304 302 300 296 293 290 283 276 274 275 276 275 273 269 266 268 270 264 258 258 260 259 256 251 248 249 251 252 256 257 252 244 240 239 242 241 236 234 240 245 246 249 252 253 253 253 253 254 254 253 250 248 249 252 254 253 252 249
317 319 325 322 316 313 310 308 310 312 313 313 311 308 304 303 305 307 306 303 301 299 300 300 300 301 301 301 299 295 291 290 287 284 281 276 275 273 269 266 263 262 265 266 265 261 258 256 260 264 265 266 277 287 280 270 268 266 260 250 245 245 247 243 239 240 245 248 251 253 254 255 254 253 253 253 252 251 252 253 255 256 254 251 248
313 316 318 314 310 307 304 303 304 306 307 308 307 305 303 304 306 306 304 301 299 296 294 294 295 295 294 293 292 289 287 286 284 281 277 274 272 269 265 263 263 264 266 267 267 266 263 259 261 267 274 282 293 291 273 261 263 268 264 255 248 245 248 250 248 246 247 248 249 252 254 255 255 254 255 254 253 253 255 255 255 253 249 246 244
312 311 311 308 302 299 299 299 299 301 303 303 303 302 301 301 302 302 302 300 297 294 291 290 290 290 288 286 284 282 282 281 280 277 274 273 270 264 260 260 260 261 264 266 268 270 268 265 264 266 268 270 271 267 264 265 272 274 267 259 254 249 248 249 249 248 249 250 251 255 258 258 258 258 258 258 257 257 256 255 253 249 246 244 241
310 310 309 306 301 297 296 295 295 297 298 299 299 298 298 299 299 299 298 296 294 292 290 289 288 287 286 284 282 280 279 277 276 275 273 273 272 270 268 267 267 269 272 274 281 291 291 284 276 271 268 265 264 267 271 274 274 271 268 269 269 262 253 249 249 250 250 250 254 260 263 261 259 258 258 257 256 253 249 246 245 243 243 243 240
306 306 306 305 302 299 296 292 291 292 292 293 294 294 295 297 296 296 295 292 291 290 288 287 287 285 284 282 281 279 277 275 273 272 271 271 271 272 273 274 274 276 279 284 293 300 301 300 295 285 275 269 264 262 262 261 258 254 258 278 285 276 260 255 256 258 254 248 246 251 255 255 253 253 252 252 250 247 243 238 236 233 233 233 231
299 301 302 301 300 298 295 292 290 288 288 288 288 289 291 292 293 294 293 291 290 290 287 285 285 283 282 282 281 280 279 278 276 274 274 277 276 273 270 270 271 273 273 273 274 275 278 283 286 282 277 273 269 264 256 253 255 257 264 277 285 286 280 270 266 265 259 252 245 240 241 243 244 246 248 247 245 243 241 237 234 230 227 227 228
298 299 299 298 297 296 294 293 291 289 287 285 284 284 286 288 289 290 290 289 289 288 285 283 281 280 280 281 280 279 278 276 275 274 275 277 279 277 273 270 271 274 275 272 270 270 272 274 277 278 278 276 273 271 268 265 266 267 270 276 283 288 287 279 275 265 254 248 243 239 240 243 246 246 245 245 246 246 245 244 241 237 232 228 229
Height
785 790 793 797 801 804 808 811 814 817 820 823 826 828 830 832 834 836 839 841 842 844 846 847 848 850 851 852 853 854 855 856 856 857 858 859 860 861 862 863 864 865 866 866 867 867 867 868 868 868 869 869 870 870 870 870 870 871 871 871 871 870 870 870 870 870 870 870 870 869 869 869 870 870 870 869 869 869 869 869 868 868 868 869 868
784 788 791 795 799 802 806 810 813 816 819 822 824 827 829 831 833 835 837 840 841 843 844 846 847 848 850 851 852 853 854 855 856 857 858 859 860 861 862 863 864 865 866 866 867 867 867 868 868 868 869 869 870 870 870 871 871 871 871 871 870 870 870 870 870 870 870 870 870 870 870 870 870 869 869 868 868 869 869 869 868 867 867 867 867
785 787 790 793 796 800 804 808 811 814 817 820 823 825 828 830 832 834 836 838 840 842 843 845 846 847 849 850 851 852 853 855 856 856 858 859 860 861 862 863 864 865 866 866 867 867 868 868 868 869 869 869 870 870 871 871 871 871 871 871 870 870 870 870 871 870 870 870 870 871 871 871 871 870 868 867 867 867 867 868 868 867 867 867 867
786 786 787 790 794 797 801 805 808 811 815 818 821 823 826 828 831 833 835 837 839 841 843 844 846 847 849 850 851 852 853 854 856 857 858 858 859 861 862 862 863 864 865 866 867 867 868 868 868 869 869 869 870 870 870 871 871 871 871 871 870 870 870 871 871 871 870 870 871 872 870 871 875 871 866 866 866 866 866 866 867 866 866 867 867
786 786 786 788 791 795 799 803 806 808 812 815 818 820 823 826 829 831 834 836 838 840 842 843 845 847 848 850 851 852 853 854 855 856 857 858 859 860 861 862 863 864 865 866 866 867 868 868 869 869 869 869 869 870 870 870 871 871 871 871 871 871 871 871 871 871 871 871 871 872 872 875 875 869 867 868 866 864 865 865 866 865 865 867 866
784 783 784 787 790 793 797 801 803 806 809 812 815 818 821 824 827 830 832 834 836 838 840 842 844 846 847 849 850 851 853 853 854 856 856 858 858 859 861 862 863 863 864 865 866 867 868 868 869 869 869 870 870 870 870 870 870 871 871 872 871 872 872 872 872 871 871 872 871 871 872 874 873 870 870 871 867 864 864 864 865 864 864 865 865
783 782 783 786 789 793 796 799 801 804 807 810 812 815 818 822 825 828 830 832 835 837 839 841 842 844 846 847 849 850 851 852 854 855 856 857 857 858 860 861 862 863 864 865 866 867 868 868 869 869 869 870 870 870 869 870 870 871 871 872 872 872 873 872 872 872 872 872 871 870 871 871 871 871 871 871 870 868 865 862 863 864 864 864 864
784 786 786 786 789 792 795 799 800 802 805 808 810 813 816 820 823 826 828 831 833 835 837 839 841 843 844 846 847 849 850 851 853 854 855 856 857 858 859 860 862 862 863 864 865 867 867 868 869 869 869 869 870 870 869 869 870 871 871 872 872 873 873 873 872 872 872 871 871 871 871 871 871 871 870 870 871 870 867 863 863 863 863 864 864
784 787 788 787 789 791 794 798 800 801 803 806 808 811 815 818 821 824 827 829 831 833 836 837 839 841 843 845 846 847 849 850 852 853 855 856 856 858 859 860 861 862 863 864 865 866 867 867 868 868 869 869 869 869 869 870 870 871 871 872 873 873 873 873 873 873 872 871 871 871 872 871 871 870 870 869 868 870 869 864 864 864 863 864 865
786 786 786 787 788 789 793 797 799 800 802 806 807 810 814 817 820 823 825 828 830 832 834 836 838 840 842 843 845 846 848 849 851 852 854 855 856 857 858 859 860 861 862 863 864 865 866 867 867 868 869 868 869 869 870 870 870 871 871 872 872 873 873 873 873 873 873 872 871 872 872 872 872 871 869 868 868 869 868 863 863 863 863 864 866
788 787 786 787 789 788 791 795 797 798 802 806 808 809 812 815 818 821 823 826 828 830 833 835 837 838 840 842 843 845 847 848 849 851 853 854 855 857 858 859 859 860 861 862 863 864 865 866 867 867 868 867 868 869 869 870 870 871 871 871 872 872 873 873 873 873 873 873 872 872 873 872 872 872 870 870 869 869 868 864 862 863 863 864 866
789 791 790 789 790 788 790 794 796 799 802 805 808 809 812 814 817 820 822 825 827 829 832 834 836 837 839 841 842 844 846 847 848 850 851 853 854 856 857 858 859 859 860 861 862 863 864 865 866 867 867 867 867 869 869 870 870 870 871 871 872 872 872 873 873 872 872 872 872 872 872 871 871 871 870 870 870 870 869 866 864 865 865 863 865
785 787 788 789 789 788 789 793 795 799 802 804 806 809 812 814 816 818 821 823 826 828 830 832 834 836 838 839 841 843 845 846 847 849 850 852 853 855 856 856 858 858 859 860 861 862 863 864 865 866 867 867 868 868 869 870 870 870 871 871 871 872 872 872 872 872 872 872 872 871 871 871 870 871 870 869 870 870 870 868 866 866 864 863 865
778 780 782 785 787 787 789 791 793 796 798 800 804 807 811 813 815 818 819 822 824 826 829 831 833 835 836 838 840 842 843 845 846 848 849 851 852 853 854 855 856 857 858 859 860 861 862 863 864 865 866 867 867 868 869 869 870 870 870 871 871 871 872 872 872 872 872 872 871 871 871 871 870 870 870 869 869 869 869 869 869 868 864 862 864
778 779 780 782 785 787 789 790 792 794 795 798 801 805 809 812 815 817 819 821 823 825 827 830 832 834 835 837 838 840 842 843 845 847 848 849 850 852 853 853 855 856 857 858 859 860 861 862 863 864 865 866 867 867 868 869 869 870 870 871 871 871 871 871 872 871 871 871 871 872 871 871 871 870 870 869 869 869 869 870 870 870 868 865 863
779 779 780 782 783 786 789 790 792 794 795 797 800 803 807 810 814 816 818 820 821 823 826 828 830 832 833 835 837 839 840 842 843 845 846 848 849 850 852 853 854 854 855 857 858 859 860 861 862 863 864 865 866 867 867 868 869 869 870 870 870 870 870 871 871 871 871 871 871 872 871 871 871 870 870 870 870 870 870 871 870 870 872 871 868
779 779 780 781 783 786 791 793 793 793 796 798 800 803 806 809 811 814 817 818 820 822 824 826 828 830 832 833 835 837 838 840 841 843 845 846 848 849 850 852 852 853 854 855 856 858 859 860 861 862 863 864 865 866 866 867 868 868 869 869 869 870 870 870 871 871 871 871 871 871 871 871 870 870 870 870 870 871 871 871 871 870 871 872 872
778 777 778 782 784 790 796 796 793 793 797 799 800 803 805 808 810 812 815 816 818 821 823 825 826 827 830 831 833 834 836 838 839 841 843 844 846 848 849 850 851 852 853 854 855 856 858 859 859 861 861 863 864 864 865 866 866 868 868 868 869 869 869 870 870 870 870 870 870 870 870 870 870 870 870 870 869 870 871 870 870 871 871 871 871
778 777 781 783 784 787 792 794 792 793 798 801 802 804 805 807 809 812 815 815 818 820 821 823 824 825 827 828 830 832 834 836 837 839 841 842 844 845 847 848 849 851 852 853 854 855 856 857 858 859 860 861 862 863 864 865 865 867 867 867 867 868 869 869 869 870 870 870 870 870 870 870 870 870 870 870 869 870 870 870 870 870 871 871 870
782 780 782 782 781 782 784 788 790 792 797 800 803 805 806 807 809 813 816 817 819 820 820 821 821 821 823 825 827 829 831 833 835 836 838 839 841 843 844 846 847 849 850 851 853 853 855 856 857 858 859 859 861 862 863 864 864 865 866 866 866 867 868 868 869 869 869 869 869 869 869 869 869 869 869 869 869 869 870 869 869 869 869 870 870
787 785 785 785 784 783 783 786 790 793 796 798 801 804 807 810 811 812 814 816 817 817 818 819 819 820 821 823 825 826 828 830 832 834 835 837 839 840 842 844 845 847 848 849 851 852 853 854 855 856 857 858 859 860 861 862 863 864 864 865 866 866 867 867 868 868 868 868 868 868 869 869 869 869 869 869 868 868 868 868 868 869 869 869 869
794 791 791 791 791 789 787 788 791 794 797 798 801 802 806 811 813 811 811 812 813 814 815 817 818 819 821 822 823 824 826 828 829 831 833 834 836 838 839 841 842 844 846 847 849 850 851 852 853 854 855 856 857 858 860 861 861 862 863 864 865 865 866 866 867 867 867 867 867 867 868 868 868 868 868 868 868 867 867 867 867 867 867 868 868
802 799 798 798 798 796 794 794 795 796 798 800 802 804 807 811 811 809 809 809 809 811 814 816 817 818 819 821 822 823 824 826 827 829 830 831 833 835 837 838 839 841 843 845 846 847 849 850 851 853 853 854 856 857 858 859 860 861 861 862 863 863 864 865 865 866 866 866 866 866 866 866 866 867 867 867 867 866 866 866 866 866 866 867 867
806 806 804 803 801 799 798 799 799 800 800 801 803 806 809 811 810 809 810 810 808 809 812 814 815 816 817 819 820 821 823 824 825 826 827 828 830 832 834 836 837 838 840 842 844 845 846 848 849 850 851 853 854 855 856 857 858 859 860 861 862 862 863 863 863 864 864 865 865 865 865 865 865 865 865 865 865 865 865 865 866 866 866 867 867
808 808 807 805 803 802 802 802 802 804 805 806 808 810 811 811 810 811 813 812 809 809 810 812 814 814 815 817 818 819 820 822 824 824 824 825 827 828 831 833 834 836 837 839 841 842 844 845 846 848 849 850 851 853 854 855 856 857 858 859 860 861 861 861 862 862 863 863 863 863 864 864 864 864 864 864 864 864 864 865 865 865 865 866 866
808 808 809 809 808 806 805 804 804 805 807 809 810 810 809 810 812 812 812 811 810 809 809 811 812 813 814 815 816 817 818 820 822 822 821 822 824 825 827 829 831 833 834 836 837 839 841 842 844 845 846 848 849 850 851 852 854 855 856 857 858 858 859 860 860 860 861 861 861 862 862 862 863 862 862 863 863 863 863 863 864 864 864 865 865
809 809 810 811 811 810 809 808 807 807 807 807 807 807 807 808 811 811 810 808 808 809 809 810 811 812 813 814 814 815 816 817 819 820 820 820 820 822 824 825 828 830 832 833 834 836 838 839 841 842 844 845 846 848 849 850 851 852 853 854 855 856 857 857 858 858 859 859 859 860 860 860 861 861 861 861 861 862 862 862 863 863 863 863 863
810 811 811 811 812 813 812 812 811 810 809 809 808 808 807 807 809 810 809 808 807 808 809 809 810 811 812 813 813 814 815 816 817 818 818 818 818 820 821 823 825 827 828 830 831 832 834 836 838 839 841 843 844 845 846 847 848 849 851 852 852 854 854 854 855 856 856 856 857 857 857 857 858 858 859 859 859 860 860 861 861 862 862 862 862
811 812 813 813 814 814 814 815 813 812 812 811 810 810 809 809 810 810 810 810 809 809 809 808 809 810 812 812 813 814 814 815 816 816 816 817 817 818 819 820 822 823 825 827 828 829 831 833 835 836 838 839 841 841 842 844 845 846 848 849 850 851 851 852 853 853 853 854 854 854 854 854 855 855 856 857 857 858 858 859 859 860 860 860 860
813 813 814 815 816 817 817 816 815 814 814 813 812 812 811 811 812 812 813 812 811 811 810 809 809 810 811 811 812 813 813 814 814 814 815 815 816 817 818 819 820 821 823 825 826 827 828 829 831 833 834 836 836 837 838 840 842 843 845 846 847 848 848 849 850 850 851 851 851 851 851 852 852 853 853 854 854 855 856 857 857 858 858 859 859
815 816 816 816 817 818 818 818 817 816 816 815 815 814 814 814 814 814 814 813 813 812 811 811 811 810 811 811 811 811 811 812 812 813 814 815 816 816 817 818 819 820 821 823 824 825 825 827 828 829 831 832 832 833 834 836 838 840 842 843 844 845 846 846 847 848 848 848 849 849 849 849 850 850 850 851 851 852 852 853 854 855 856 856 856
817 818 818 817 817 818 818 818 818 818 817 817 817 816 816 816 815 815 815 814 814 813 812 812 812 812 811 811 811 810 810 811 811 812 813 815 818 818 818 818 818 819 821 821 822 823 824 825 825 826 827 828 829 830 831 832 834 836 838 840 841 842 843 843 844 844 845 846 846 846 846 846 846 846 847 848 848 848 848 849 850 851 852 852 853
819 820 820 820 820 819 819 819 818 818 818 818 818 818 818 818 817 817 816 815 815 814 814 813 813 813 812 810 811 811 811 812 812 812 813 814 817 819 821 821 820 819 819 820 821 822 822 823 823 824 824 825 825 827 828 829 830 832 834 836 838 839 839 840 840 841 842 842 842 843 843 843 843 843 844 844 844 845 845 845 846 847 848 848 849
820 820 821 822 822 822 822 821 820 820 819 819 819 819 819 818 818 817 817 816 816 815 815 815 814 814 813 812 812 812 812 812 812 813 814 814 815 817 820 823 824 822 821 819 819 820 820 821 822 822 822 822 823 823 824 825 827 828 830 832 834 835 836 836 837 838 838 838 839 840 840 840 840 840 841 841 842 842 842 842 843 843 843 844 844
822 822 822 823 823 823 823 823 822 821 820 820 819 819 819 818 818 818 817 817 816 816 816 816 816 815 814 813 813 813 813 812 812 813 814 815 816 816 818 821 825 826 825 822 819 818 818 818 819 820 820 820 820 821 821 822 823 824 826 828 829 831 832 833 834 834 835 835 835 836 836 836 837 837 837 838 839 840 840 840 840 840 840 840 840
822 823 824 824 824 824 824 824 823 822 821 821 820 820 819 818 818 818 818 818 817 816 816 816 816 816 815 815 815 814 813 813 813 814 814 814 816 817 817 818 821 824 825 823 821 820 818 817 816 816 817 816 816 817 818 819 820 821 823 824 826 827 828 829 830 830 831 831 832 832 833 833 833 833 834 835 836 837 837 837 837 837 837 837 837
824 824 824 824 825 825 825 824 823 822 822 822 821 821 820 819 818 818 818 817 817 815 815 816 816 816 816 816 816 815 815 814 814 814 814 814 815 815 815 815 816 817 818 818 817 816 815 814 814 813 813 812 812 813 814 815 816 818 820 821 822 824 825 825 826 826 827 827 827 828 828 829 829 829 830 831 832 833 834 834 834 834 834 834 833
825 825 824 825 826 826 825 825 823 822 822 822 822 822 821 820 819 819 818 817 816 816 816 816 817 817 818 818 818 817 816 815 814 814 814 813 813 814 812 812 812 812 812 811 811 810 809 810 809 809 808 808 808 809 810 811 812 814 816 817 818 820 821 822 822 822 823 823 822 823 824 825 825 825 827 828 828 829 830 831 831 831 831 830 830
825 825 825 826 827 826 825 824 823 823 823 823 823 822 821 821 820 820 819 818 817 817 817 817 817 818 818 818 818 818 817 815 813 812 813 812 812 812 811 810 810 809 809 809 809 808 807 807 807 806 806 805 805 805 806 807 808 809 811 813 814 816 817 817 818 818 818 818 818 818 818 819 820 821 823 824 825 826 827 827 828 828 827 826 826
824 825 827 827 827 826 825 824 824 824 824 823 822 822 822 822 821 821 819 819 819 818 818 818 817 817 816 817 817 818 817 815 812 811 811 811 811 810 811 811 810 808 807 807 806 805 804 804 804 804 803 803 802 802 803 803 804 805 807 809 810 812 812 813 814 814 815 815 814 814 814 814 815 816 819 821 822 823 823 824 825 824 823 823 824
824 825 826 826 825 825 825 825 824 824 824 823 822 822 822 821 821 821 820 819 819 818 818 818 817 817 816 815 816 817 817 816 814 812 812 812 810 810 810 810 809 808 806 805 804 802 801 800 799 799 798 798 798 799 799 800 801 802 803 805 806 807 808 810 811 811 811 811 811 811 811 811 811 812 814 816 818 819 820 821 821 820 819 820 822
826 826 826 825 824 824 824 824 824 824 824 823 822 822 822 821 821 820 820 819 818 818 817 817 817 817 816 816 815 816 816 817 816 815 813 811 809 809 808 808 808 807 805 803 802 801 800 797 796 795 794 794 793 794 795 796 797 798 800 802 803 804 805 807 808 808 807 808 808 808 808 809 809 809 810 811 813 814 816 816 815 815 816 817 818
828 828 827 827 826 825 825 824 824 824 823 823 823 822 821 821 821 820 819 818 817 817 817 816 816 816 816 815 815 814 814 815 815 814 812 810 808 808 807 806 805 804 803 802 800 799 798 796 793 792 791 791 791 791 793 793 794 794 796 798 799 801 802 804 805 804 804 805 805 806 806 806 806 806 807 808 809 810 810 811 810 811 812 814 815
829 829 828 828 828 827 826 825 824 824 824 823 823 822 821 821 820 819 819 818 817 816 816 815 814 814 814 814 814 813 813 812 812 811 810 808 807 806 806 804 802 801 801 799 798 796 795 793 791 789 788 789 790 790 791 792 792 792 793 794 796 798 799 801 802 802 802 802 803 803 803 803 804 804 804 805 805 806 806 806 806 807 809 810 811
830 830 830 830 829 828 827 826 824 824 824 823 822 822 820 819 819 818 818 817 816 815 814 813 813 812 812 812 811 811 810 809 809 808 807 806 805 804 804 802 800 799 799 798 796 794 792 791 789 788 789 790 791 791 792 792 792 792 792 792 793 795 796 798 799 799 799 800 800 800 800 801 801 801 802 802 802 802 802 802 803 804 805 806 806
830 831 832 832 831 829 828 826 825 824 824 823 822 821 820 819 818 818 817 816 815 814 813 812 811 811 810 810 809 808 808 807 806 805 804 803 802 801 800 799 798 797 796 795 794 792 790 788 787 788 791 792 791 792 792 791 790 790 790 790 791 793 795 797 797 796 797 797 797 797 798 798 798 799 799 799 799 798 799 799 799 800 800 801 801
829 830 831 832 831 830 829 827 826 825 824 822 822 821 820 819 818 817 816 815 814 813 811 810 810 809 808 807 806 806 805 804 803 802 801 799 798 797 796 795 794 794 793 792 791 788 787 786 785 786 788 788 788 788 788 788 789 788 787 787 787 787 789 792 794 794 793 793 794 796 796 796 796 796 796 795 795 795 795 795 794 795 795 795 795
827 828 829 829 829 829 829 828 826 825 824 823 821 820 819 818 817 816 815 813 812 811 810 808 807 806 805 804 803 803 802 801 800 799 797 796 795 794 793 792 791 790 789 788 787 786 785 785 784 783 783 783 783 784 784 785 787 786 786 787 787 785 784 785 788 789 789 788 789 790 792 792 793 793 792 791 791 790 790 790 789 789 789 789 790
826 826 826 827 827 827 827 827 826 825 824 822 821 819 818 817 816 815 814 812 811 809 807 806 805 804 803 802 801 800 799 798 797 795 794 793 792 792 791 790 789 789 788 788 786 785 785 784 783 782 781 780 780 781 782 782 783 783 784 786 787 786 785 783 784 786 787 786 783 782 785 787 788 788 787 786 786 785 784 784 784 784 784 784 784
826 826 825 825 825 824 824 824 824 824 823 822 820 819 818 816 815 814 813 811 810 808 806 804 803 802 800 799 798 797 796 795 794 793 792 791 790 789 789 787 786 786 786 786 785 784 783 783 782 780 779 779 779 779 780 780 779 780 781 783 783 784 784 783 783 783 785 784 781 779 779 781 782 782 782 781 780 780 779 778 778 779 779 778 778
825 825 824 824 823 822 822 821 821 821 821 820 819 818 817 816 814 813 812 810 809 807 805 803 801 800 799 798 797 795 794 793 792 791 790 789 787 785 784 784 783 782 781 782 781 780 780 780 779 777 775 776 776 776 777 777 777 777 778 779 779 780 782 782 781 781 780 780 778 776 776 776 777 777 777 776 776 776 774 774 774 774 773 772 771